Theta_e
320 318 317 317 317 319 319 319 319 319 318 317 316 315 317 316 316 316 315 314 315 315 315 316 318 316 315 314 316 317 322 323 324 322 322 322 321 322 322 321 322 322 322 321
318 319 318 318 318 318 317 318 318 317 317 316 317 316 315 315 316 316 316 314 315 315 315 317 318 316 317 314 315 317 321 321 324 322 322 324 324 324 324 323 323 323 325 323
319 320 319 319 319 320 318 319 318 318 318 315 316 315 316 315 316 317 316 316 315 315 315 317 318 317 317 317 313 317 319 319 322 324 324 325 325 325 324 321 325 326 324 325
319 319 320 319 320 319 320 318 319 318 318 317 315 316 315 316 316 316 315 315 315 315 315 317 318 318 315 319 314 317 319 317 322 326 325 323 326 324 325 325 326 326 326 326
322 319 319 320 320 318 320 319 318 318 317 316 317 315 315 318 319 316 315 314 315 315 316 317 317 318 316 320 317 317 320 318 323 325 325 326 326 326 326 323 323 325 326 325
321 320 319 320 319 318 319 318 315 315 314 315 315 316 316 316 318 318 316 315 315 315 316 317 317 317 319 321 320 317 321 319 320 323 323 323 322 323 327 327 324 324 324 324
320 319 319 320 320 317 316 314 316 316 317 318 317 317 317 318 317 317 318 315 316 315 316 316 318 318 319 320 320 319 317 318 317 319 323 322 321 321 325 327 327 325 327 326
320 322 319 318 319 318 314 314 315 317 315 315 318 321 320 318 321 321 321 318 315 315 316 316 317 318 318 320 318 321 320 318 319 317 318 319 321 321 324 326 326 328 327 324
320 320 319 318 318 318 317 315 314 315 317 318 318 320 321 324 322 319 316 315 315 316 316 316 317 318 318 320 319 321 321 319 320 319 318 317 319 319 321 323 325 328 328 328
318 321 319 319 318 316 317 315 317 313 318 319 318 322 323 321 324 321 316 314 315 316 316 316 317 318 318 321 320 321 322 320 318 320 318 317 315 317 319 321 324 326 323 323
316 318 319 319 319 318 318 318 318 313 314 316 316 320 318 324 325 324 319 316 317 317 317 317 316 318 318 320 321 320 322 318 312 318 316 317 315 314 318 318 320 322 323 324
316 316 319 323 321 321 318 317 319 318 318 319 318 320 320 324 325 326 323 318 317 317 318 318 315 317 318 320 319 320 321 318 310 309 311 314 316 317 315 318 318 319 319 321
315 315 317 317 325 325 325 323 319 319 319 324 325 321 320 325 324 324 323 319 318 317 317 317 316 317 318 320 319 320 322 319 316 313 311 309 309 315 313 318 319 318 322 320
318 314 317 320 318 325 326 328 324 321 322 323 325 324 324 325 327 324 320 320 318 317 317 318 316 316 318 318 319 319 319 319 318 316 317 313 309 312 313 316 319 318 321 321
315 316 316 317 317 322 322 324 326 323 322 324 323 325 324 323 325 326 324 319 317 317 317 318 317 315 318 319 319 319 318 318 318 317 318 316 310 309 314 315 316 316 321 320
315 317 315 317 317 317 320 321 326 324 323 325 323 324 322 325 326 326 325 321 318 319 319 318 318 316 316 319 319 318 318 318 317 316 318 318 311 309 311 315 317 319 320 321
315 319 319 318 322 321 322 320 325 325 323 323 325 323 322 325 326 326 326 324 323 320 321 318 319 318 316 317 318 318 316 317 316 315 319 318 312 309 310 312 316 316 317 320
315 319 320 326 325 325 322 321 323 325 324 322 323 322 322 323 325 325 326 326 326 323 322 321 319 319 318 316 318 318 316 317 315 314 318 319 314 310 312 315 313 314 315 315
316 319 323 326 321 324 326 324 324 325 325 323 323 322 322 324 325 325 327 327 327 327 327 325 322 320 319 317 316 318 317 317 316 314 315 317 313 309 311 311 313 312 311 311
319 320 323 318 326 329 324 324 324 322 326 322 323 321 322 323 324 324 326 326 326 326 326 326 325 321 320 319 317 318 316 317 317 316 314 313 312 309 310 310 310 310 309 308
321 320 325 318 319 321 321 323 324 327 325 323 324 323 322 323 325 325 325 325 326 327 327 326 325 324 323 320 318 318 317 316 317 317 316 312 311 309 310 310 310 310 309 310
323 321 322 317 322 325 321 323 327 323 323 323 325 325 325 326 325 325 325 326 326 326 326 326 325 324 323 321 319 318 317 316 316 318 317 315 312 310 310 311 311 310 310 311
324 321 322 321 321 318 323 324 326 325 324 324 324 325 325 325 325 325 325 325 325 325 326 326 327 325 323 322 321 319 317 317 316 319 319 318 314 313 311 312 313 313 313 313
321 318 321 321 320 320 323 324 324 323 324 324 324 324 324 324 325 325 325 326 326 325 326 326 326 325 324 324 323 321 319 317 317 317 319 319 318 315 314 312 313 315 316 315
319 319 319 320 319 320 322 324 324 324 323 324 325 324 324 325 325 326 326 326 326 326 325 326 327 326 326 325 325 322 321 319 318 317 318 320 319 319 317 316 314 313 314 314
318 319 322 321 317 321 322 324 324 323 324 323 323 323 325 326 326 326 326 326 325 325 326 326 325 326 327 326 325 323 322 321 319 318 318 318 320 320 319 320 321 319 317 316
Wind_Speed
8 4 8 9 6 5 4 3 5 4 5 5 7 10 16 11 19 15 23 25 22 17 11 7 3 1 6 10 8 13 13 17 16 11 10 10 7 7 5 5 4 5 4 6
4 12 7 7 4 4 3 3 5 6 3 6 8 10 9 8 13 27 29 28 25 20 15 10 6 1 3 9 5 10 10 14 17 12 10 11 11 9 6 9 11 12 10 14
8 4 8 7 5 4 5 3 5 7 1 3 1 7 5 5 7 13 21 27 27 24 18 13 9 4 0 7 6 8 9 12 14 12 10 12 13 12 9 11 11 12 16 16
7 6 8 5 5 7 4 8 5 4 2 4 4 5 6 5 6 7 19 29 30 26 19 14 11 6 2 5 6 6 9 10 10 13 12 15 16 18 14 13 17 18 18 20
10 8 6 5 9 7 10 4 6 3 4 2 2 2 6 2 7 10 17 29 32 28 22 17 13 7 4 5 5 3 7 9 8 12 15 16 14 15 14 12 8 11 14 14
10 10 10 12 8 9 3 3 6 4 4 1 7 7 5 5 8 7 5 27 34 31 24 16 12 10 6 6 3 2 5 6 6 8 12 14 15 15 15 14 10 4 11 12
4 5 4 6 5 3 5 6 4 4 3 5 3 3 8 9 9 9 9 26 35 32 27 21 19 15 10 6 5 1 1 4 4 6 8 12 12 12 11 10 10 6 8 13
9 9 10 4 8 10 7 9 5 6 3 5 3 5 6 6 7 13 13 19 33 34 29 23 19 16 12 8 6 5 1 1 2 4 7 10 9 9 12 14 13 13 17 18
8 8 3 7 5 11 5 4 6 4 1 2 3 7 10 3 5 6 10 20 32 36 31 25 20 18 15 12 6 5 4 1 2 1 3 6 6 6 8 12 13 14 19 15
7 3 6 7 5 1 9 7 2 2 2 4 4 4 6 8 5 4 6 18 31 35 31 25 22 20 17 13 8 6 6 3 4 2 0 3 4 5 6 8 11 15 15 14
6 6 4 6 7 9 3 3 4 4 4 5 3 6 6 4 9 8 9 23 32 38 34 27 23 20 17 15 12 9 7 4 4 5 3 1 4 5 6 6 9 10 11 11
8 7 6 8 2 5 7 10 9 5 5 3 4 7 5 6 9 8 7 19 27 35 33 27 24 21 20 17 15 10 9 6 3 4 4 4 3 4 8 8 8 8 10 12
8 3 3 5 3 1 4 5 5 5 4 7 5 6 4 4 3 2 9 15 24 32 32 28 26 25 22 20 16 11 9 9 6 4 4 4 5 5 8 9 8 10 11 12
18 6 10 16 6 6 5 5 6 7 5 5 6 4 5 3 4 2 5 12 20 31 35 31 28 27 25 21 18 14 10 12 9 6 4 3 5 8 9 12 10 10 10 10
6 8 6 5 10 11 14 9 12 10 9 8 8 9 8 5 5 4 8 13 21 28 35 36 32 29 29 24 21 16 12 11 12 9 6 2 3 9 12 12 12 11 10 9
2 4 8 7 10 13 11 17 16 17 3 1 6 5 7 7 8 6 7 19 25 29 38 40 35 30 30 29 23 19 15 13 13 11 8 6 4 9 14 13 13 11 11 10
1 4 4 5 5 6 17 16 14 10 5 10 8 10 7 6 8 14 15 18 25 29 32 42 41 35 31 31 27 23 18 14 13 12 12 9 6 9 12 14 14 13 11 11
2 4 2 3 6 9 5 11 17 19 12 8 4 8 10 13 20 16 11 9 20 27 27 38 44 37 32 29 28 24 21 17 14 13 13 12 9 11 12 14 15 15 13 12
8 5 2 5 4 4 1 5 9 9 12 15 13 5 9 10 6 15 12 14 18 25 24 28 40 42 36 32 30 28 25 21 17 15 15 13 11 12 12 13 14 14 14 13
6 4 5 3 7 10 6 6 6 5 8 10 17 9 9 13 4 9 20 19 22 21 28 21 30 42 39 34 33 31 29 27 23 19 16 15 13 13 12 12 13 13 13 12
5 3 13 2 5 6 5 9 17 8 7 12 28 25 18 7 22 26 21 20 16 18 25 26 25 31 38 39 37 36 33 33 28 22 18 17 16 15 13 14 14 13 13 13
8 7 5 2 3 9 7 7 12 7 10 13 27 27 31 36 30 27 21 16 13 14 19 24 22 26 32 40 40 41 38 31 31 28 24 21 19 18 18 18 17 16 15 15
10 7 7 10 6 4 27 19 30 21 17 16 25 27 31 30 30 23 23 23 17 16 16 18 20 22 29 33 43 45 39 34 33 33 30 27 23 22 21 22 22 21 20 19
3 3 4 4 6 6 25 15 25 17 17 17 13 15 20 23 24 25 25 20 17 15 12 16 23 26 30 31 38 46 41 38 35 36 35 32 29 27 26 25 26 25 24 23
7 8 7 3 2 2 11 31 23 27 16 15 16 12 16 20 20 19 17 18 18 16 15 17 20 23 27 30 34 41 46 42 42 36 37 37 35 33 30 29 29 30 28 26
4 6 8 8 11 11 15 33 33 25 32 23 14 15 21 19 15 14 15 18 16 12 13 16 23 25 25 29 36 40 43 46 47 44 40 42 40 39 37 34 32 31 28 26
Wind_Direction
167 142 203 202 199 183 195 196 247 266 242 178 235 252 273 220 213 207 206 201 203 206 203 200 201 8 28 21 15 10 20 23 18 16 25 45 36 18 343 14 27 349 223 188
83 219 188 197 164 173 160 222 264 274 278 163 271 271 263 189 224 214 211 204 205 198 196 201 200 217 27 28 27 11 20 18 23 25 36 44 25 34 29 52 67 55 90 146
185 182 163 169 196 174 198 174 233 239 319 239 151 307 301 268 242 221 226 215 210 204 200 199 200 206 76 39 40 25 32 19 27 32 45 53 36 52 62 72 76 69 96 94
208 191 172 168 196 166 254 217 229 267 47 271 133 271 286 284 278 228 215 210 208 201 202 202 197 201 166 62 48 45 37 22 40 40 50 71 50 59 76 89 79 80 78 82
213 155 176 173 211 163 232 143 196 228 205 109 270 72 262 352 284 259 218 210 206 201 198 199 195 191 148 109 56 86 35 33 59 56 55 59 66 61 66 84 80 75 75 87
202 206 166 197 213 175 166 107 49 55 97 60 235 160 278 221 217 260 193 206 206 196 195 197 183 186 161 160 93 133 34 27 57 61 55 55 55 60 74 81 104 109 105 94
168 186 191 151 152 89 96 71 338 338 6 223 108 101 235 255 244 231 230 199 201 192 192 191 187 190 184 171 174 154 9 15 49 65 67 61 60 59 72 73 80 146 112 136
180 227 170 178 170 183 181 155 158 230 231 260 139 231 250 229 306 295 273 218 194 187 192 194 190 190 189 175 169 211 224 34 49 67 68 59 70 66 66 63 77 100 128 123
174 227 138 166 156 148 177 153 197 138 154 62 243 287 311 268 7 22 132 172 185 186 191 194 190 193 193 186 166 213 231 310 189 61 32 42 78 91 77 76 68 86 123 125
194 182 207 199 100 19 166 160 112 18 194 228 278 286 240 300 304 174 162 178 186 187 191 195 192 194 196 194 192 225 237 274 215 221 79 46 99 132 106 94 96 95 93 101
134 135 269 110 178 169 124 162 58 124 148 187 235 257 218 224 251 233 196 198 192 188 192 195 191 193 199 201 204 225 235 251 213 218 214 116 119 142 140 122 116 110 114 114
185 152 193 199 198 172 208 189 171 163 229 208 185 261 242 262 272 215 200 212 201 198 192 194 192 190 198 202 197 209 219 226 198 189 193 204 178 150 164 145 134 117 115 110
170 199 149 328 5 329 168 178 148 120 95 189 186 261 177 256 270 218 204 203 203 199 198 195 194 195 199 200 198 196 212 206 201 185 175 188 193 174 168 164 148 146 134 144
160 158 189 221 209 158 183 179 183 156 141 185 217 211 260 185 58 293 175 212 207 202 201 196 197 202 203 203 203 199 203 205 205 205 204 194 193 185 175 180 171 159 158 147
142 205 182 198 202 191 212 196 180 191 195 175 215 208 229 180 179 209 185 186 192 201 208 202 200 206 205 204 204 203 198 204 212 211 217 222 208 190 184 181 182 173 160 155
7 222 175 217 207 195 215 217 194 208 152 107 155 231 207 178 174 226 187 188 199 203 210 211 206 205 206 207 205 203 200 200 211 212 211 217 216 189 186 185 185 182 181 174
335 136 103 227 182 127 245 208 193 204 190 171 198 214 155 179 195 222 235 217 220 214 210 216 209 208 207 204 203 204 199 199 208 205 208 217 212 190 184 191 195 195 195 193
216 108 104 158 112 208 278 203 187 199 204 194 179 178 181 204 225 242 231 270 236 225 214 218 219 213 212 208 204 204 201 202 202 203 206 213 211 194 188 188 191 197 203 205
180 138 168 152 211 299 234 153 145 159 227 198 205 154 191 205 230 254 235 268 278 246 230 226 222 218 212 207 202 202 202 203 202 203 203 210 216 203 195 190 191 193 197 200
141 198 170 175 178 219 191 199 150 76 246 196 197 192 165 143 188 234 228 253 278 248 237 225 224 223 215 212 205 202 203 203 203 201 201 203 210 211 200 189 183 179 178 176
145 135 209 174 228 275 248 149 137 154 233 185 192 203 174 185 220 233 247 262 270 256 241 230 224 223 220 210 207 205 204 206 206 196 199 203 205 206 199 190 184 177 175 176
162 151 190 123 190 245 170 133 161 197 217 215 204 206 202 217 228 230 238 242 254 244 224 224 223 224 220 212 209 209 207 207 207 202 200 204 204 202 199 195 188 186 188 187
193 184 186 189 203 227 172 174 198 186 195 196 207 208 215 220 224 223 240 237 246 214 209 218 230 222 218 211 211 211 211 207 206 206 203 207 205 204 201 201 197 197 197 196
238 157 152 130 207 202 192 200 204 192 192 213 219 210 211 224 232 233 239 236 219 216 197 222 218 219 219 216 212 217 213 207 207 207 205 207 212 209 207 207 206 206 206 207
202 152 174 228 314 91 219 202 203 208 201 192 189 207 232 226 227 231 238 227 229 239 231 223 225 226 225 225 219 214 217 211 209 210 209 207 211 214 213 214 215 215 217 219
213 176 184 221 175 168 203 203 207 210 215 211 219 215 215 219 230 238 245 243 243 240 251 248 234 227 225 227 223 217 218 215 213 211 212 212 210 213 218 217 220 224 229 233